Location: Saluda
(35.2377°N, 82.3468°W)
Time: 22:30:47
(UTC+00:00)

Tiros 1 - Pass Details

Date: 11 October 2022
Orbit: 629 x 662 km, 48.4° (Epoch: 08 December)

Event Time Altitude Azimuth Distance (km) Brightness Sun altitude
Rises 01:13:09 0° 234° (SW) 2,967 11.1 -27.8°
Reaches altitude 10° 01:15:29 10° 235° (SW) 2,062 10.2 -28.2°
Enters shadow 01:18:46 44° 240° (WSW) 905 8.1 -28.9°
